Location: Doverdale
(52.2833°N, 2.2000°W)
Time: 12:14:23
(UTC+00:00)

SeaSat 1 - Pass Details

Date: 29 October 2020
Orbit: 744 x 747 km, 108.0° (Epoch: 24 November)

Event Time Altitude Azimuth Distance (km) Brightness Sun altitude
Exits shadow 19:40:26 65° 212° (SSW) 822 2.6 -27.3°
Maximum altitude 19:40:48 68° 241° (WSW) 807 2.6 -27.3°
Drops below altitude 10° 19:45:44 10° 325° (NW) 2,276 5.5 -28.1°
Sets 19:48:02 0° 328° (NNW) 3,205 6.4 -28.4°
